DW5856 Weather Reports


Display with metric or nautical units.
time (UTC)temp
F
wind
direction
speed
MPH
gust
MPH
rain 1hr
in
rain 24hr
in
rain mn
in
humidity
%
barometer
mb
20260905233017 90 316 2.0 4.0 0.00 0.00 0.00 23 1000.7
20260905231505 90 229 1.0 3.0 0.00 0.00 0.00 24 1000.4
20260905230006 90 232 1.0 5.0 0.00 0.00 0.00 23 1000.2
20260905224509 90 174 1.0 7.0 0.00 0.00 0.00 24 1000.1
20260905223005 91 131 1.0 11.0 0.00 0.00 0.00 23 1000.1
20260905221506 92 172 2.0 8.0 0.00 0.00 0.00 23 1000.0
20260905220003 94 138 5.0 17.0 0.00 0.00 0.00 22 1000.2
20260905214502 93 185 2.0 10.0 0.00 0.00 0.00 23 1000.4
20260905213109 94 90 9.0 17.0 0.00 0.00 0.00 23 1000.5
20260905211601 94 109 7.0 14.0 0.00 0.00 0.00 24 1000.9
20260905210058 92 125 6.0 14.0 0.00 0.00 0.00 24 1001.1
20260905204553 92 135 7.0 18.0 0.00 0.00 0.00 24 1001.3
20260905203050 94 188 3.0 16.0 0.00 0.00 0.00 22 1001.3
20260905201548 94 67 6.0 12.0 0.00 0.00 0.00 21 1001.5
20260905200054 93 56 8.0 14.0 0.00 0.00 0.00 22 1001.6
20260905194548 93 170 2.0 11.0 0.00 0.00 0.00 22 1001.9
20260905193045 94 80 5.0 10.0 0.00 0.00 0.00 23 1002.1
20260905191543 93 96 6.0 12.0 0.00 0.00 0.00 23 1002.1
20260905190042 93 136 5.0 11.0 0.00 0.00 0.00 23 1002.2
20260905184544 92 42 3.0 6.0 0.00 0.00 0.00 23 1002.5
20260905183037 91 146 1.0 5.0 0.00 0.00 0.00 25 1002.6
20260905181536 91 144 1.0 8.0 0.00 0.00 0.00 24 1002.8
20260905180033 91 104 1.0 8.0 0.00 0.00 0.00 26 1003.0
20260905174536 88 144 2.0 7.0 0.00 0.00 0.00 27 1003.3
20260905173029 88 126 2.0 6.0 0.00 0.00 0.00 27 1003.5
20260905171527 88 157 2.0 5.0 0.00 0.00 0.00 26 1003.5
20260905170026 87 166 2.0 5.0 0.00 0.00 0.00 29 1003.6
20260905164523 86 103 1.0 5.0 0.00 0.00 0.00 29 1003.6
20260905163019 85 105 2.0 5.0 0.00 0.00 0.00 29 1003.6
20260905161515 84 19 2.0 4.0 0.00 0.00 0.00 31 1003.5
20260905160022 82 104 4.0 7.0 0.00 0.00 0.00 34 1003.5
20260905154509 81 123 3.0 7.0 0.00 0.00 0.00 38 1003.4
20260905153008 81 100 3.0 6.0 0.00 0.00 0.00 34 1003.4
20260905151504 79 106 2.0 5.0 0.00 0.00 0.00 40 1003.4
20260905150003 79 111 3.0 6.0 0.00 0.00 0.00 40 1003.3
20260905144517 80 97 1.0 4.0 0.00 0.00 0.00 40 1003.6
20260905143059 78 136 0.0 3.0 0.00 0.00 0.00 38 1003.5
20260905141611 76 133 0.0 3.0 0.00 0.00 0.00 42 1003.6
20260905140059 73 98 1.0 5.0 0.00 0.00 0.00 45 1003.5
20260905134603 70 60 0.0 3.0 0.00 0.00 0.00 44 1003.5
20260905133054 66 213 0.0 3.0 0.00 0.00 0.00 49 1003.6
20260905131553 64 231 2.0 3.0 0.00 0.00 0.00 51 1003.5
20260905130042 62 231 1.0 4.0 0.00 0.00 0.00 52 1003.4
20260905124539 62 247 0.0 3.0 0.00 0.00 0.00 51 1003.3
20260905123036 63 247 1.0 3.0 0.00 0.00 0.00 51 1003.0
20260905121535 63 279 0.0 3.0 0.00 0.00 0.00 49 1002.9
20260905120038 64 279 0.0 3.0 0.00 0.00 0.00 48 1002.9
20260905114555 64 279 0.0 4.0 0.00 0.00 0.00 48 1002.8
20260905113030 65 279 1.0 4.0 0.00 0.00 0.00 47 1003.0
20260905111528 65 360 2.0 5.0 0.00 0.00 0.00 46 1002.9
20260905110027 64 360 5.0 6.0 0.00 0.00 0.00 46 1002.9
20260905104526 64 5 4.0 6.0 0.00 0.00 0.00 47 1002.9
20260905103031 62 337 6.0 8.0 0.00 0.00 0.00 49 1002.8
20260905101521 64 333 3.0 7.0 0.00 0.00 0.00 48 1002.9
20260905100016 65 99 4.0 7.0 0.00 0.00 0.00 50 1002.6
20260905094513 64 5 1.0 4.0 0.00 0.00 0.00 48 1002.2
20260905093012 65 19 2.0 4.0 0.00 0.00 0.00 45 1002.2
20260905091506 67 54 1.0 3.0 0.00 0.00 0.00 45 1002.1
20260905090003 68 54 1.0 4.0 0.00 0.00 0.00 44 1002.1
20260905084500 68 329 3.0 4.0 0.00 0.00 0.00 41 1002.0
20260905083101 69 355 4.0 7.0 0.00 0.00 0.00 41 1001.9
20260905081558 69 355 5.0 7.0 0.00 0.00 0.00 41 1001.9
20260905080057 69 340 5.0 6.0 0.00 0.00 0.00 41 1002.2
20260905074600 68 342 5.0 7.0 0.00 0.00 0.00 41 1001.9
20260905073103 68 338 3.0 5.0 0.00 0.00 0.00 42 1001.9
20260905071552 69 332 1.0 5.0 0.00 0.00 0.00 42 1001.8
20260905070049 69 355 5.0 6.0 0.00 0.00 0.00 40 1001.7
20260905064606 70 26 1.0 3.0 0.00 0.00 0.00 40 1001.7
20260905063048 71 26 0.0 2.0 0.00 0.00 0.00 40 1001.7
20260905061554 71 26 2.0 5.0 0.00 0.00 0.00 39 1001.6
20260905060047 71 337 4.0 6.0 0.00 0.00 0.00 38 1001.4
20260905054543 73 253 2.0 3.0 0.00 0.00 0.00 36 1001.6
20260905053039 75 283 1.0 4.0 0.00 0.00 0.00 34 1001.4
20260905051542 76 284 3.0 5.0 0.00 0.00 0.00 33 1001.6
20260905050040 76 265 2.0 4.0 0.00 0.00 0.00 33 1001.7
20260905044551 78 268 4.0 6.0 0.00 0.00 0.00 32 1001.8
20260905043036 78 270 2.0 4.0 0.00 0.00 0.00 32 1002.1
20260905041536 79 183 1.0 4.0 0.00 0.00 0.00 33 1002.2
20260905040046 80 272 2.0 5.0 0.00 0.00 0.00 31 1002.2
20260905034549 80 269 1.0 5.0 0.00 0.00 0.00 32 1002.1
20260905033053 80 257 2.0 7.0 0.00 0.00 0.00 31 1002.1
20260905031534 80 273 3.0 6.0 0.00 0.00 0.00 32 1001.9
20260905030034 79 217 3.0 7.0 0.00 0.00 0.00 33 1001.8
20260905024534 79 179 1.0 3.0 0.00 0.00 0.00 33 1001.6
20260905023101 80 180 1.0 5.0 0.00 0.00 0.00 31 1001.3
20260905021532 81 163 1.0 4.0 0.00 0.00 0.00 30 1001.1
20260905020034 82 280 0.0 2.0 0.00 0.00 0.00 29 1000.7
20260905014531 83 115 1.0 6.0 0.00 0.00 0.00 28 1000.7
20260905013032 84 111 3.0 5.0 0.00 0.00 0.00 28 1000.6
20260905011529 85 98 3.0 8.0 0.00 0.00 0.00 27 1000.5
20260905010034 86 121 6.0 13.0 0.00 0.00 0.00 27 1000.5
20260905004529 87 128 4.0 12.0 0.00 0.00 0.00 25 1000.4
20260905003027 89 96 4.0 11.0 0.00 0.00 0.00 23 1000.2
20260905001527 89 102 2.0 11.0 0.00 0.00 0.00 23 1000.0
20260905000026 90 130 5.0 12.0 0.00 0.00 0.00 23 1000.1
20260904234532 91 122 4.0 11.0 0.00 0.00 0.00 22 1000.0